Zurück zum Katalog

DELTA 1 DEB

AktivUNKNOWN
NORAD 13529·DEBRIS·🇺🇸 United States

Gestartet Jul 29, 1976 von Vandenberg Space Force Base

Loading…

Nächste Überflüge (nächste 24 Stunden)

TLE

AktuellSource: Space-Track

Epoche: Sep 14, 2026, 14:27 UTC

1 13529U 76077EB  26257.60259733 -.00000021  00000-0  22417-3 0  9997
2 13529 101.8485 306.9869 0381354 217.9798 301.9360 11.66126168952306

Verfolge DELTA 1 DEB in Echtzeit mit AllMySat

Download on the App Store